IU1OLT-5 Weather Reports


time (UTC)temp
C
wind
direction
speed
KPH
gust
KPH
rain 1hr
cm
rain 24hr
cm
rain mn
cm
humidity
%
barometer
mb
20260507224304 12 14 6.4 9.7 0.00 0.00 0.00 84 1014.3
20260507222804 11 62 11.3 14.5 0.00 0.00 0.00 90 1014.5
20260507221304 12 314 9.7 12.9 0.00 0.00 0.00 86 1014.3
20260507215803 12 41 6.4 11.3 0.00 0.00 0.00 89 1014.1
20260507214303 11 14 9.7 9.7 0.00 0.00 0.00 94 1014.2
20260507212802 11 353 6.4 8.0 0.00 0.00 0.00 92 1014.2
20260507211302 11 64 6.4 9.7 0.00 0.00 0.00 95 1014.2
20260507205802 12 38 8.0 9.7 0.00 0.00 0.00 95 1014.1
20260507204301 12 23 9.7 11.3 0.00 0.00 0.00 96 1014.3
20260507202801 12 345 4.8 4.8 0.00 0.00 0.00 96 1014.5
20260507201301 12 60 6.4 9.7 0.00 0.00 0.00 95 1014.2
20260507195800 12 328 3.2 4.8 0.00 0.00 0.00 95 1014.1
20260507194300 12 7 8.0 9.7 0.00 0.00 0.00 94 1013.7
20260507192759 13 26 8.0 12.9 0.00 0.00 0.00 94 1013.9
20260507191259 13 268 0.0 0.0 0.00 0.00 0.00 93 1013.9
20260507185759 14 260 0.0 0.0 0.00 0.00 0.00 92 1013.9
20260507184258 14 264 0.0 0.0 0.00 0.00 0.00 92 1013.8
20260507182758 14 223 4.8 4.8 0.00 0.00 0.00 91 1014.1
20260507181258 14 234 3.2 3.2 0.00 0.00 0.00 90 1013.8
20260507175757 15 237 4.8 6.4 0.00 0.00 0.00 86 1014.0
20260507174257 15 232 6.4 8.0 0.00 0.00 0.00 86 1014.1
20260507172757 16 242 4.8 6.4 0.00 0.00 0.00 84 1014.1
20260507171256 16 231 11.3 11.3 0.00 0.00 0.00 85 1014.0
20260507165756 16 216 9.7 9.7 0.00 0.00 0.00 83 1013.8
20260507164256 16 196 8.0 9.7 0.00 0.00 0.00 82 1013.7
20260507162756 17 230 4.8 6.4 0.00 0.00 0.00 81 1013.8
20260507161255 16 207 6.4 8.0 0.00 0.00 0.00 80 1013.8
20260507155755 17 252 4.8 4.8 0.00 0.00 0.00 86 1013.7
20260507154255 17 188 12.9 16.1 0.00 0.00 0.00 82 1014.0
20260507152754 16 210 12.9 14.5 0.00 0.00 0.00 85 1014.0
20260507151254 17 209 11.3 16.1 0.00 0.00 0.00 82 1013.8
20260507145754 16 224 8.0 9.7 0.00 0.00 0.00 84 1014.0
20260507144254 16 203 14.5 17.7 0.00 0.00 0.00 84 1014.0
20260507142753 17 234 12.9 19.3 0.00 0.00 0.00 84 1014.2
20260507141253 17 209 9.7 12.9 0.00 0.00 0.00 83 1014.1
20260507135753 16 175 19.3 20.9 0.00 0.00 0.00 88 1014.4
20260507134252 16 283 11.3 16.1 0.00 0.00 0.00 87 1014.3
20260507132752 16 228 20.9 27.4 0.00 0.00 0.00 86 1014.4
20260507131252 16 201 19.3 22.5 0.00 0.00 0.00 85 1014.3
20260507125752 17 217 9.7 12.9 0.00 0.00 0.00 84 1014.5
20260507124252 17 203 12.9 20.9 0.00 0.00 0.00 85 1014.2
20260507122751 17 235 11.3 12.9 0.00 0.00 0.00 83 1014.4
20260507121251 17 206 14.5 17.7 0.00 0.00 0.00 82 1014.0
20260507115751 18 208 16.1 22.5 0.00 0.00 0.00 80 1014.3
20260507114251 16 237 14.5 17.7 0.00 0.00 0.00 86 1014.3
20260507112751 17 237 11.3 16.1 0.00 0.00 0.00 83 1014.5
20260507111251 17 209 19.3 22.5 0.00 0.00 0.00 81 1014.4
20260507105750 17 224 14.5 19.3 0.00 0.00 0.00 81 1014.4
20260507104250 17 195 6.4 9.7 0.00 0.00 0.00 81 1014.4
20260507102749 16 236 9.7 14.5 0.00 0.00 0.00 84 1014.7
20260507101249 16 211 11.3 16.1 0.00 0.00 0.00 82 1014.4
20260507095749 17 203 19.3 25.7 0.00 0.00 0.00 81 1014.4
20260507094248 17 215 12.9 16.1 0.00 0.00 0.00 78 1014.5
20260507092748 17 192 8.0 11.3 0.00 0.00 0.00 80 1014.3
20260507091248 17 198 11.3 12.9 0.00 0.00 0.00 81 1014.3
20260507085747 17 189 8.0 12.9 0.00 0.00 0.00 81 1014.6
20260507084247 16 220 20.9 25.7 0.00 0.00 0.00 82 1014.0
20260507082747 17 272 9.7 14.5 0.00 0.00 0.00 80 1014.1
20260507081246 17 244 11.3 14.5 0.00 0.00 0.00 81 1013.8
20260507075746 17 212 11.3 16.1 0.00 0.00 0.00 81 1014.1
20260507074246 15 249 1.6 3.2 0.00 0.00 0.00 85 1013.7
20260507072745 15 233 1.6 3.2 0.00 0.00 0.00 85 1013.8
20260507071245 15 266 1.6 1.6 0.00 0.00 0.00 84 1013.7
20260507065744 15 186 1.6 1.6 0.00 0.00 0.00 82 1013.6
20260507064244 15 306 1.6 1.6 0.00 0.00 0.00 82 1013.6
20260507062744 13 197 1.6 3.2 0.00 0.00 0.00 84 1013.7
20260507061243 15 69 3.2 4.8 0.00 0.00 0.00 84 1013.3
20260507055743 15 7 4.8 4.8 0.00 0.00 0.00 80 1013.1
20260507054243 15 243 3.2 4.8 0.00 0.00 0.00 83 1013.1
20260507052742 14 311 1.6 3.2 0.00 0.00 0.00 85 1013.1
20260507051242 12 100 3.2 4.8 0.00 0.00 0.00 89 1012.8
20260507045742 13 26 4.8 6.4 0.00 0.00 0.00 87 1012.8
20260507044242 12 46 3.2 4.8 0.00 0.00 0.00 91 1012.5
20260507042741 12 302 1.6 1.6 0.00 0.00 0.00 92 1012.2
20260507041241 12 339 1.6 1.6 0.00 0.00 0.00 93 1012.6
20260507035741 12 23 3.2 4.8 0.00 0.00 0.00 92 1012.4
20260507034241 12 246 1.6 1.6 0.00 0.00 0.00 93 1012.3
20260507032741 12 316 0.0 1.6 0.00 0.00 0.00 94 1012.3
20260507031241 12 123 4.8 4.8 0.00 0.00 0.00 93 1012.3
20260507025741 12 116 3.2 4.8 0.00 0.00 0.00 94 1012.4
20260507024241 12 267 0.0 1.6 0.00 0.00 0.00 93 1012.4
20260507022740 12 86 3.2 4.8 0.00 0.00 0.00 93 1012.3
20260507021240 12 333 1.6 3.2 0.00 0.00 0.00 93 1012.3
20260507015740 12 293 1.6 3.2 0.00 0.00 0.00 91 1012.5
20260507014240 12 84 3.2 3.2 0.00 0.00 0.00 94 1012.5
20260507012740 12 52 4.8 6.4 0.00 0.00 0.00 93 1012.3
20260507011240 12 338 1.6 1.6 0.00 0.00 0.00 92 1012.5
20260507005740 12 333 1.6 3.2 0.00 0.00 0.00 92 1012.5
20260507004240 13 185 1.6 3.2 0.00 0.00 0.00 90 1012.6
20260507002739 12 74 3.2 3.2 0.00 0.00 0.00 92 1012.6
20260507001239 13 131 4.8 6.4 0.00 0.00 0.00 90 1012.4
20260506235739 13 345 1.6 3.2 0.00 0.00 0.00 91 1012.7
20260506234239 13 257 3.2 3.2 0.00 0.00 0.00 90 1012.6
20260506232739 12 321 1.6 3.2 0.00 0.00 0.00 91 1012.8
20260506231238 12 59 3.2 4.8 0.00 0.00 0.00 93 1012.6
20260506225738 13 163 4.8 4.8 0.00 0.00 0.00 91 1012.6